Location: Newark
(43.0000°N, 1.6781°W)
Time: 00:11:36
(UTC+00:00)

deb Explorer IX - Pass Details

Date: 19 April 2021
Orbit: 541 x 1098 km, 38.8° (Epoch: 12 May)

Event Time Altitude Azimuth Distance (km) Brightness Sun altitude
Rises 08:01:37 0° 242° (WSW) 2,780 ? 28.7°
Reaches altitude 10° 08:03:51 10° 234° (SW) 1,935 ? 29.1°
Maximum altitude 08:08:02 41° 164° (SSE) 949 ? 29.9°
Drops below altitude 10° 08:12:50 10° 95° (E) 2,222 ? 30.7°
Sets 08:15:34 0° 89° (E) 3,249 ? 31.2°
